Cloud_Cover
100 92 100 100 100 24 61 98 96 100 100 100 99 100 75 94 58 30 10 48 58 44 7 2 0 0 0 0 0 0 0 0 0 1 40 5 0 0 0 0 0 0 0
54 87 100 99 100 100 100 49 18 100 100 100 100 100 100 100 94 62 100 100 16 61 5 0 0 0 0 0 0 0 0 3 5 5 0 56 1 0 0 0 0 0 0
100 100 100 58 67 64 20 29 98 99 90 100 96 92 100 100 100 100 100 100 7 5 3 0 0 0 0 0 1 5 11 6 5 4 0 51 100 68 0 0 0 0 0
90 100 100 100 100 98 92 21 76 35 25 100 100 100 100 100 72 74 81 64 5 5 3 3 5 4 5 5 28 92 100 98 3 70 41 48 99 2 0 0 0 0 0
100 100 100 100 100 92 100 99 98 89 90 100 99 100 100 100 100 89 85 61 5 4 5 8 58 12 26 77 100 98 100 9 2 16 40 1 0 0 0 0 0 0 0
100 100 100 100 100 100 100 100 100 100 100 100 100 98 98 76 100 100 100 100 100 82 100 52 99 100 100 100 100 7 20 26 5 73 3 6 56 0 0 0 0 0 0
100 100 100 100 100 100 100 100 100 100 100 100 100 100 96 92 100 100 100 100 96 100 100 100 98 100 100 100 97 100 98 9 0 8 0 0 0 0 0 0 0 0 0
100 100 100 100 100 100 100 100 100 100 100 100 100 100 100 100 100 100 100 100 100 100 99 99 100 100 100 100 100 100 9 3 3 0 0 0 0 0 0 0 0 0 0
100 100 100 100 100 100 100 100 100 100 100 100 100 98 100 100 100 100 100 100 100 100 100 100 100 100 100 39 62 58 12 5 0 2 7 0 0 0 0 0 0 0 0
100 100 100 100 100 100 100 100 100 100 100 100 100 100 100 100 100 100 100 100 100 100 100 100 100 100 98 96 7 5 2 1 0 28 0 0 0 0 0 0 0 0 0
100 100 100 100 100 100 100 100 100 100 100 100 100 100 100 100 100 100 100 100 100 100 100 100 100 8 57 88 26 60 22 0 0 21 4 0 0 0 0 0 0 0 0
100 100 100 100 100 100 100 100 100 100 100 100 100 100 100 100 100 100 100 100 100 100 100 100 69 23 5 3 5 5 3 1 0 2 2 2 0 1 0 0 0 0 0
100 100 100 100 100 100 100 100 100 100 100 100 100 100 100 99 100 100 100 100 100 100 97 24 6 98 20 67 6 3 0 0 0 58 84 89 100 90 0 0 0 0 28
100 100 100 100 100 100 100 100 100 100 100 100 100 100 100 100 100 100 100 100 100 100 99 96 25 81 11 92 14 25 5 16 40 34 99 100 93 93 2 0 0 0 0
100 100 100 100 100 100 100 100 100 100 100 100 100 100 100 100 100 100 100 100 100 100 95 82 37 11 2 5 5 3 96 33 100 98 47 0 1 0 0 0 0 0 0
25 41 72 97 96 100 100 100 80 100 100 100 100 100 100 100 100 100 99 100 73 100 55 26 82 100 100 100 100 100 100 100 100 100 100 0 0 0 1 0 5 2 0
100 100 100 100 100 100 100 100 100 100 100 100 100 100 100 100 100 100 100 93 69 100 98 99 100 100 100 100 100 100 100 62 5 43 5 0 0 0 0 0 0 80 9
100 100 100 99 100 100 100 100 100 100 100 100 100 97 100 100 100 100 100 96 36 99 100 98 98 99 88 5 5 87 99 8 5 5 5 0 0 0 0 3 0 2 0
100 100 100 100 100 100 100 100 100 100 100 100 98 94 62 99 100 100 99 100 100 71 100 100 99 55 99 50 3 5 5 5 66 31 10 5 5 4 12 63 49 1 0
98 72 91 100 100 100 100 100 69 59 99 88 12 5 8 5 32 87 58 53 71 74 86 100 79 42 1 0 0 1 3 1 0 3 4 37 88 98 100 100 93 7 5
40 100 100 100 100 100 100 100 68 81 4 4 4 5 5 5 5 5 5 5 5 5 0 0 0 0 2 5 5 0 0 4 5 5 5 5 6 81 100 99 100 100 44
100 100 100 100 100 100 51 17 5 5 18 5 5 5 5 5 6 6 28 4 5 5 4 0 0 4 3 0 0 5 5 5 5 5 5 3 65 100 94 76 93 84 61
100 100 100 69 17 6 100 30 5 4 5 5 5 5 13 17 5 5 5 5 5 5 0 0 0 2 0 4 2 3 5 5 4 3 5 2 5 30 92 98 99 79 39
81 86 51 83 38 73 30 5 3 5 5 5 12 99 34 9 6 5 5 5 5 0 0 3 1 0 0 5 5 4 3 5 5 5 5 1 3 5 5 5 46 49 49
42 48 50 2 82 5 7 6 5 73 100 98 54 89 84 72 8 5 4 5 5 5 5 5 82 79 7 5 5 5 5 5 5 39 5 5 5 60 20 5 4 1 0
7 5 0 11 0 1 0 0 5 5 5 5 13 5 9 31 80 70 11 5 5 5 4 4 10 2 5 5 80 75 35 40 74 98 75 23 22 0 4 4 0 0 0